Igor Kartashov

Chief Scout - Orenburg
22 Feb 2027
Monday
Process

Personality

Adaptability (18) Ambition (10) Controversy (16) Loyalty (19) Pressure (13) Professionalism (18) Sportsmanship (5) Temperament (17)

Profile

Coaching Style Democratic
License Continental C
Determination 4
Man Management 4
Motivating 3
Discipline 6
Job Satisfaction
50%
Fatigue
0%
Role Chief Scout
Wage 63.3K p/w
Contract 14.03.2028

Performance

Behaviour Normal
Training Effectiveness
19%
Player Development
55%
Injury Prevention
35%
Tactical Implementation
30%

Recent Events

Attended a recruitment meeting 7d ago
Voted against a transfer target 7d ago
Voted against a transfer target 14d ago
Voted against a transfer target 14d ago
Voted against a transfer target 14d ago
Voted against a transfer target 14d ago
Voted against a transfer target 14d ago
Attended a recruitment meeting 14d ago

Currently Monitoring

78
Player Club Status Ability Confidence Watched Last Observed Latest Vote
Danila Shilov Dinamo Stavropol Active 100 / 94 58% 1 15.02.2027 Approve
Maurits Kjærgaard Red Bull Salzburg Rejected 128 / 130 65% 1 25.01.2027 Reject
Caio Vidal Granada Rejected 128 / 129 63% 1 25.01.2027 Reject
Burak Soyuncu Fenerbahce Rejected 127 / 128 64% 1 25.01.2027 Reject
Konstantin Tyukavin Toulouse FC Rejected 133 / 134 67% 1 25.01.2027 Reject
Pavel Kireenko Dinamo St Petersburg Rejected 90 / 96 58% 1 25.01.2027 Reject
Michel Ndary Adopo Cagliari Active 122 / 126 40% 2 23.01.2027 -
Iker Pozo Rodina Active 114 / 106 40% 2 23.01.2027 -
Mohamed Azzi Dinamo Makhachkala Active 120 / 125 40% 4 22.01.2027 -
Maxim Petrov Baltika Active 119 / 113 40% 1 22.01.2027 -
Lechi Sadulaev Akhmat Grozny Active 117 / 116 40% 4 19.01.2027 -
Thierry Rendall Correia Venezia Active 146 / 131 40% 1 19.01.2027 -
Luka Vešner Tičić Nizhniy Novgorod Rejected 104 / 131 40% 4 18.01.2027 Reject
Helinho Toluca Active 139 / 120 40% 4 17.01.2027 -
Ronaldo Rostov Active 131 / 109 40% 6 15.01.2027 -
Brian Figueroa Morelia Active 108 / 128 40% 2 14.01.2027 -
Kyreece Lisbie Colchester United Active 97 / 133 40% 3 12.01.2027 -
Irakly Manelov Baltika Active 104 / 116 40% 3 12.01.2027 -
Ruslan Bezrukov Rubin Active 110 / 121 40% 5 10.01.2027 -
Bart van Rooij Twente Rejected 133 / 155 40% 2 08.01.2027 Needs More Info
Manuel Keliano Akhmat Grozny Active 97 / 110 40% 1 08.01.2027 -
Aleksandar Jukić Rubin Active 105 / 97 40% 1 07.01.2027 -
Luke Thomas Leicester City Active 129 / 107 40% 1 07.01.2027 -
Kirill Schetinin Akhmat Grozny Rejected 116 / 132 40% 3 06.01.2027 Reject
Ibrahim Cissoko Zwolle Active 134 / 131 40% 1 06.01.2027 -
Daniel Kyerewaa Reading Active 114 / 104 40% 2 31.12.2026 -
Dmitry Tsypchenko Torpedo Moscow Active 94 / 90 40% 3 26.12.2026 -
Dardan Shabanhaxhaj Rubin Active 118 / 109 40% 1 25.12.2026 -
Jack Currie Oxford United Active 116 / 110 40% 1 25.12.2026 -
Gilson Benchimol Akron Active 115 / 124 40% 4 22.12.2026 -
Alexey Mironov Rostov Active 111 / 109 40% 3 22.12.2026 -
Marcelo Flores Tigres Active 110 / 125 40% 2 21.12.2026 -
Charlie Webster Burton Albion Active 104 / 131 40% 4 19.12.2026 -
Aleksa Đurasović Akron Active 106 / 124 40% 2 12.12.2026 -
Anderson Arroyo Rubin Active 108 / 122 40% 2 12.12.2026 -
Josip Mitrović Slaven Belupo Active 114 / 110 40% 1 08.12.2026 -
Roberto Fernández Akron Active 111 / 108 40% 4 06.12.2026 -
Miloš Brnović Arsenal Tula Active 112 / 120 40% 1 06.12.2026 -
Harvey Vale Queens Park Rangers Active 126 / 141 40% 1 02.12.2026 -
Arsen Adamov Akhmat Grozny Active 117 / 130 40% 2 01.12.2026 -
Temirkan Sundukov Dinamo Makhachkala Active 108 / 115 40% 2 01.12.2026 -
Roger Hinojo Espanyol Active 108 / 98 40% 1 27.11.2026 -
Jonathan Sulemana BA All Stars Active 109 / 107 40% 1 27.11.2026 -
Mauro Rodrigues Botev Plovdiv Active 103 / 113 40% 2 26.11.2026 -
Bojan Roganović Torpedo Moscow Active 112 / 111 40% 1 26.11.2026 -
Sinoxolo Kwayiba Chippa United Active 108 / 127 40% 1 24.11.2026 -
Mikhail Ignatov Sochi Active 118 / 113 40% 4 23.11.2026 -
Kirill Danilin Fakel Active 96 / 114 40% 1 23.11.2026 -
Stefan Kovač Baltika Active 118 / 110 40% 2 22.11.2026 -
Andrei Cordea CFR Cluj Active 130 / 131 40% 1 11.11.2026 -
Ugochukwu Iwu Rubin Active 129 / 107 40% 2 10.11.2026 -
Mads Roerslev Southampton Active 137 / 131 40% 2 06.11.2026 -
Nikolay Titkov Baltika Active 117 / 101 40% 1 06.11.2026 -
Maxim Mukhin Rostov Active 106 / 111 40% 1 05.11.2026 -
Valentín Fenoglio Estudiantes Active 99 / 102 40% 1 05.11.2026 -
Mohammad Javad Hosseinnejad Dinamo Makhachkala Active 103 / 120 40% 1 04.11.2026 -
Yegor Kortsov Dinamo Brest Active 98 / 104 40% 5 03.11.2026 -
José Paradela Cruz Azul Active 146 / 129 40% 3 31.10.2026 -
Fernando Costanza Krylya Sovetov Active 113 / 130 40% 1 31.10.2026 -
Soltmurad Bakaev Rodina Active 95 / 95 40% 1 28.10.2026 -
Artem Karpukas Zenit Active 118 / 125 40% 2 26.10.2026 -
Johnly Yfeko Exeter City Active 100 / 107 40% 1 26.10.2026 -
Bogdan Jočić Rubin Active 123 / 98 40% 1 25.10.2026 -
Agustín Ramírez Inter Active 100 / 81 40% 1 23.10.2026 -
Ruslan Fischenko Rodina Active 118 / 110 40% 1 23.10.2026 -
Veldin Hodža Rubin Active 121 / 124 40% 1 21.10.2026 -
Victor Parada Spartak Moscow Active 111 / 122 40% 1 20.10.2026 -
Sergey Pryakhin Akhmat Grozny Active 115 / 120 40% 2 19.10.2026 -
Pedro Zenit Active 124 / 139 40% 1 13.10.2026 -
Juan Pablo Barinaga Patronato Active 99 / 129 40% 2 12.10.2026 -
Doğucan Haspolat Westerlo Active 109 / 123 40% 1 08.10.2026 -
Ilja Vakhania Krasnodar Active 122 / 120 40% 1 06.10.2026 -
Ronaldo Vásquez Sumgayit Active 116 / 92 40% 1 05.10.2026 -
Samuel Gidi FC Cincinnati Active 102 / 104 40% 1 05.10.2026 -
Ivan Komarov Rostov Active 111 / 96 40% 1 11.09.2026 -
Fanil Sungatulin Ural Active 110 / 101 40% 1 09.09.2026 -
Julio Alonso Huesca Active 131 / 123 40% 1 08.09.2026 -
Alexandr Dolgov Amkar Active 90 / 76 58% 1 07.09.2026 Approve